Date,TemperatureHighF,TemperatureAvgF,TemperatureLowF,DewpointHighF,DewpointAvgF,DewpointLowF,HumidityHigh,HumidityAvg,HumidityLow,PressureMaxIn,PressureMinIn,WindSpeedMaxMPH,WindSpeedAvgMPH,GustSpeedMaxMPH,PrecipitationSumIn
2013-1-14,79.0,75.3,72.0,67.0,65.6,63.3,83,72,62,30.14,30.09,18,8,18,0.00
2013-1-15,75.8,72.3,68.8,67.7,65.4,62.9,85,79,74,30.11,30.02,14,6,14,0.00
2013-1-16,79.7,72.0,63.2,68.8,65.8,61.7,96,82,65,30.08,29.98,16,4,16,0.00
2013-1-17,80.5,71.0,60.3,70.6,64.7,53.2,95,81,64,30.06,29.92,27,9,27,0.02
2013-1-18,71.9,62.1,50.4,58.3,52.1,43.8,84,70,58,30.20,30.06,20,10,20,0.00
2013-1-19,69.2,67.3,66.0,60.8,58.8,57.3,83,74,66,30.15,30.10,12,3,12,0.00
2013-2-22,80.7,76.6,70.5,70.5,69.5,67.1,89,79,69,30.07,30.00,24,14,24,0.00
2013-2-23,83.3,75.8,71.3,72.1,69.5,67.1,93,82,61,30.01,29.87,21,10,21,0.00
2013-2-24,87.9,76.6,70.3,71.7,69.2,63.9,97,80,47,29.97,29.86,16,6,16,0.00
2013-2-25,83.2,74.3,68.2,72.5,70.0,66.7,97,87,63,29.89,29.79,21,6,21,0.96
2013-2-26,84.8,77.6,72.1,72.5,70.1,66.9,94,79,56,29.85,29.76,26,12,26,0.00
2013-2-27,75.3,68.6,62.9,72.3,63.3,59.4,97,84,63,29.93,29.83,18,6,18,0.16
2013-2-28,72.0,62.9,57.3,62.1,52.7,45.3,95,71,41,29.98,29.87,20,7,20,0.00
2013-3-1,64.3,60.2,56.8,55.4,49.2,44.2,80,67,50,29.96,29.87,15,6,15,0.00
2013-3-2,64.9,56.5,50.0,47.9,40.5,34.2,73,56,37,30.00,29.92,26,11,26,0.00
2013-3-3,60.4,52.2,45.5,41.3,38.8,33.3,78,61,44,30.12,29.93,24,10,24,0.00
2013-3-4,65.3,52.5,40.7,47.2,36.4,26.9,84,58,25,30.19,30.09,21,8,21,0.00
2013-3-5,74.8,62.8,50.4,57.4,52.2,44.9,91,70,51,30.15,30.05,20,6,20,0.00
2013-3-6,74.3,63.3,51.5,62.7,49.7,28.5,94,66,25,30.07,29.92,26,12,26,0.00
2013-3-7,70.5,57.4,45.8,54.9,45.0,35.1,91,65,40,30.16,30.05,21,8,21,0.00
2013-3-8,75.2,61.3,49.9,52.8,49.7,41.3,92,69,31,30.18,30.08,16,6,16,0.00
2013-3-9,73.1,63.8,54.0,56.8,52.9,50.5,90,69,54,30.17,30.07,20,7,20,0.00
2013-3-10,72.6,68.7,65.2,59.0,55.3,52.3,72,62,53,30.14,30.05,20,10,20,0.00
2013-3-11,76.0,70.3,66.8,62.1,59.2,56.0,78,68,54,30.09,29.93,21,11,21,0.00
2013-3-12,80.5,73.0,67.9,68.4,64.4,60.8,86,75,61,29.97,29.87,22,10,22,0.00
2013-3-13,73.1,64.0,54.9,65.0,54.3,42.8,93,73,39,30.10,29.95,21,10,21,0.00
2013-3-14,68.5,59.1,51.6,53.5,46.2,38.1,87,65,34,30.18,30.07,24,10,24,0.00
2013-3-15,70.5,60.0,49.1,53.3,49.0,43.3,85,69,43,30.22,30.13,16,7,16,0.00
2013-3-16,73.7,63.8,53.0,56.9,52.7,48.4,95,70,42,30.17,30.05,20,6,20,0.00
2013-3-17,74.7,66.4,56.7,60.7,57.0,54.1,92,73,55,30.12,30.00,22,7,22,0.00
2013-3-18,79.0,70.9,65.5,68.8,64.3,59.9,96,80,64,30.05,29.92,23,8,23,0.47
2013-3-19,80.0,71.4,66.2,67.6,65.6,63.6,96,83,61,29.99,29.81,22,4,22,0.00
2013-3-20,82.2,71.8,63.8,69.9,63.8,57.4,99,78,53,29.94,29.77,26,5,26,0.00
2013-3-21,75.7,65.5,59.3,61.6,52.6,42.8,95,67,32,29.92,29.80,20,8,20,0.00
2013-3-22,75.0,66.8,55.6,68.7,58.7,51.5,95,77,56,29.98,29.87,21,7,21,0.00
2013-3-23,87.2,77.4,69.9,72.6,70.1,66.3,96,79,52,29.95,29.75,21,7,21,0.00
2013-3-24,87.7,77.6,69.7,72.8,70.3,64.0,97,80,54,29.86,29.63,34,14,34,0.66
2013-3-25,80.3,72.2,61.7,71.9,57.5,37.8,97,65,29,29.96,29.70,16,8,16,0.00
2013-3-26,66.9,58.8,50.1,42.7,36.6,27.8,67,45,26,30.18,29.95,25,13,25,0.00
2013-3-27,68.6,55.1,44.3,46.9,39.9,31.8,80,58,31,30.23,30.14,17,9,17,0.00
2013-3-28,70.8,59.0,46.4,50.2,44.9,40.0,87,62,39,30.25,30.14,16,7,16,0.00
2013-3-29,73.0,63.0,52.0,52.7,49.2,44.0,82,62,43,30.27,30.18,17,6,17,0.00
2013-3-30,72.7,65.8,56.8,59.3,52.1,45.5,94,63,41,30.24,30.14,18,6,18,0.00
2013-3-31,78.3,69.6,56.9,65.4,60.3,53.6,93,73,59,30.16,30.01,25,9,25,0.00
2013-4-1,86.0,75.7,68.0,69.9,64.2,60.3,95,70,44,30.02,29.90,23,8,23,0.00
2013-4-2,71.0,67.0,65.0,64.7,64.2,63.7,98,91,79,30.00,29.96,7,4,7,0.00
2013-4-5,71.6,68.3,66.0,66.3,64.8,61.8,95,89,82,29.93,29.79,23,9,23,0.14
2013-4-6,76.8,68.1,57.3,64.8,60.4,55.5,94,77,56,30.06,29.89,23,11,23,0.00
2013-4-7,76.7,72.0,68.6,63.6,61.2,58.7,76,69,60,30.11,30.00,18,9,18,0.00
2013-4-8,69.4,65.9,62.4,62.1,60.9,59.5,96,84,72,30.07,30.02,4,1,4,0.00
2013-4-16,82.3,78.8,74.9,75.1,72.1,68.7,90,80,75,30.10,30.03,20,12,20,0.00
2013-4-17,81.7,76.1,70.5,69.4,66.7,60.3,90,73,50,30.09,30.00,16,8,16,0.00
2013-4-18,83.5,78.1,73.6,72.6,70.0,65.8,84,76,65,30.03,29.94,21,9,21,0.00
2013-4-19,84.5,79.7,74.9,73.1,71.5,68.2,92,76,60,30.02,29.93,26,13,26,0.07
2013-4-20,89.3,76.5,71.4,75.4,71.4,69.0,93,85,57,30.06,29.94,21,8,21,0.42
2013-4-21,82.8,75.6,70.1,73.9,70.5,68.0,97,84,67,30.06,29.96,23,7,23,0.00
2013-4-22,83.3,73.7,69.7,71.5,68.9,66.8,96,86,63,30.01,29.92,22,6,22,0.42
2013-4-23,80.9,74.2,66.6,67.9,64.9,60.5,96,74,58,30.06,29.92,25,11,25,0.00
2013-4-24,80.0,75.1,68.3,65.7,62.9,59.9,87,66,55,30.11,30.00,20,7,20,0.00
2013-4-25,81.3,75.0,69.6,64.4,62.0,59.6,79,65,52,30.18,30.05,17,7,17,0.00
2013-4-26,81.2,74.6,67.1,66.4,64.2,61.1,91,71,56,30.20,30.09,23,8,23,0.00
2013-4-27,78.3,75.3,72.1,66.3,64.2,61.7,75,69,60,30.18,30.06,21,11,21,0.00
2013-4-28,78.7,75.2,72.5,65.1,63.1,58.9,73,66,52,30.09,29.97,20,11,20,0.00
2013-4-29,82.3,76.6,72.4,70.5,66.8,62.1,83,72,59,30.00,29.90,20,10,20,0.00
2013-4-30,83.0,73.8,68.5,72.6,69.7,66.8,96,87,63,29.97,29.89,20,4,20,1.89
2013-5-1,80.9,73.1,68.2,73.1,69.9,67.0,97,90,73,29.97,29.89,18,4,18,0.28
2013-5-2,77.0,71.7,67.2,72.6,69.2,66.0,98,92,83,29.93,29.78,24,10,24,1.58
2013-5-3,88.8,75.0,68.7,71.0,68.4,65.9,96,82,48,29.80,29.64,23,7,23,0.21
2013-5-4,86.0,75.8,67.9,70.2,68.0,65.4,98,79,52,29.77,29.66,20,7,20,0.01
2013-5-5,83.0,73.5,67.1,66.9,61.8,52.8,96,70,39,29.90,29.72,18,8,18,0.00
2013-5-6,82.2,71.9,61.3,67.2,60.6,51.6,91,69,51,29.98,29.88,13,5,13,0.04
2013-5-7,82.0,71.7,60.1,64.2,58.2,54.9,85,64,43,30.03,29.94,20,8,20,0.00
2013-5-8,85.1,73.9,62.3,65.8,60.2,54.8,94,65,38,30.10,30.00,14,5,14,0.00
2013-5-9,86.8,76.8,65.9,71.7,66.7,60.6,87,72,47,30.11,30.03,16,6,16,0.00
2013-5-10,86.2,78.9,73.9,73.6,71.2,67.2,92,78,55,30.10,29.99,20,7,20,0.01
2013-5-11,86.8,78.6,70.8,75.2,72.5,67.7,97,83,58,30.05,29.94,24,7,24,0.58
2013-5-12,90.5,76.1,70.4,74.8,71.3,65.9,97,86,53,30.03,29.91,43,5,43,0.37
2013-5-13,87.7,77.2,70.4,71.3,68.1,62.8,97,75,49,30.06,29.96,18,6,18,0.01
2013-5-14,79.2,74.4,70.5,64.9,59.4,53.8,76,60,46,30.15,30.04,20,9,20,0.00
2013-5-15,78.8,74.6,68.8,65.3,60.7,55.2,77,62,51,30.17,30.07,20,9,20,0.00
2013-5-16,80.3,74.6,66.7,66.2,62.2,58.4,86,66,53,30.09,30.02,15,7,15,0.00
2013-5-17,79.5,74.7,69.5,72.4,68.9,62.2,96,82,67,30.07,29.98,21,7,21,1.89
2013-5-18,82.8,77.3,72.5,74.1,71.2,69.5,95,82,72,30.08,30.01,18,6,18,0.06
2013-5-19,84.0,78.3,73.3,70.8,69.3,66.0,87,75,59,30.07,29.98,15,6,15,0.00
2013-5-20,79.0,74.4,68.8,73.4,70.7,66.8,96,89,79,30.06,29.95,18,5,18,0.67
2013-5-21,82.7,74.7,69.5,73.1,70.0,66.4,97,86,64,30.02,29.91,21,8,21,0.16
2013-5-22,84.8,77.0,73.7,73.6,71.4,69.7,92,83,65,29.94,29.87,18,5,18,0.02
2013-5-23,92.0,79.9,72.4,75.2,72.3,67.2,98,79,47,29.97,29.87,16,6,16,0.01
2013-5-24,90.8,81.3,73.6,76.0,70.8,61.3,96,73,41,30.03,29.91,16,5,16,0.07
2013-5-25,82.5,78.6,75.5,72.9,67.6,64.2,87,70,57,30.14,30.01,23,10,23,0.00
2013-5-26,81.2,76.5,68.5,68.1,64.4,60.1,86,67,57,30.15,30.08,21,10,21,0.00
2013-5-27,81.5,77.6,73.6,71.8,68.2,62.4,85,73,64,30.13,30.05,23,11,23,0.00
2013-5-28,80.5,76.5,71.6,73.8,71.6,69.9,95,85,74,30.09,30.02,23,13,23,1.14
2013-5-29,78.9,75.2,70.1,74.3,71.5,68.5,97,89,75,30.07,29.99,27,11,27,2.34
2013-5-30,80.8,76.6,71.1,74.2,71.4,68.3,96,84,71,30.06,29.98,32,15,32,0.62
2013-5-31,81.3,77.2,73.9,74.6,72.5,69.0,96,86,75,30.04,29.98,29,14,29,0.55
2013-6-1,82.3,77.5,74.9,76.3,74.0,72.6,96,89,78,30.01,29.93,20,6,20,0.05
2013-6-2,89.3,78.3,72.8,76.9,73.9,71.9,98,87,60,29.97,29.89,16,3,16,0.18
2013-6-3,87.8,77.3,73.2,76.3,73.4,71.1,98,89,62,30.00,29.88,20,3,20,0.95
2013-6-4,86.7,77.5,73.2,76.4,74.1,72.2,98,90,67,30.03,29.92,9,2,9,0.01
2013-6-5,81.4,79.7,78.2,76.8,75.3,73.7,91,86,80,29.99,29.87,13,7,13,0.00
2013-6-6,86.8,78.0,72.5,78.7,74.9,70.7,98,90,74,29.88,29.72,32,12,32,1.59
2013-6-7,90.1,77.1,72.5,76.8,73.6,71.3,98,90,65,29.95,29.80,20,7,20,0.96
2013-6-8,83.0,77.2,73.1,77.7,74.7,71.8,98,92,81,30.09,29.93,16,4,16,0.92
2013-6-9,85.3,80.1,72.8,75.8,74.3,71.3,98,83,68,30.10,30.01,23,10,23,0.26
2013-6-10,85.7,81.6,78.7,76.7,75.2,73.3,88,81,70,30.06,29.98,17,9,17,0.00
2013-6-11,86.7,81.7,78.6,77.1,75.9,73.0,91,83,68,30.06,29.98,20,7,20,0.00
2013-6-12,91.7,80.8,76.7,77.9,75.4,72.5,96,84,59,30.04,29.98,15,3,15,0.00
2013-6-13,90.0,79.5,74.5,76.6,74.4,70.7,98,85,60,30.02,29.91,16,4,16,0.00
2013-6-14,92.4,80.6,73.7,76.7,73.4,68.5,95,80,55,29.94,29.84,32,7,32,0.34
2013-6-15,93.5,82.2,74.8,76.0,74.1,70.2,97,78,49,30.02,29.89,14,4,14,0.00
2013-6-16,88.5,82.2,76.1,77.6,75.0,71.2,96,80,59,30.06,29.99,16,6,16,0.02
2013-6-17,89.2,83.2,77.8,77.2,75.5,73.0,94,78,61,30.05,29.98,17,7,17,0.00
2013-6-18,89.0,83.2,78.0,77.2,75.1,73.2,91,78,63,30.04,29.95,17,6,17,0.00
2013-6-19,88.2,81.7,77.5,78.1,75.2,72.6,93,81,62,30.02,29.95,16,5,16,0.18
2013-6-20,90.3,81.2,75.3,76.0,73.0,69.6,92,77,57,30.06,29.99,20,4,20,0.00
2013-6-21,88.0,82.2,76.5,76.1,73.6,69.7,95,76,57,30.08,30.00,16,6,16,0.00
2013-6-22,87.0,82.1,77.1,75.2,73.4,71.0,91,76,62,30.08,30.01,16,7,16,0.00
2013-6-23,86.8,82.0,78.0,75.5,73.6,69.7,86,76,64,30.10,30.02,23,10,23,0.00
2013-6-24,86.3,82.4,79.3,75.1,73.2,70.2,82,74,62,30.14,30.05,18,10,18,0.00
2013-6-25,86.7,81.9,79.0,77.4,74.4,71.9,89,78,67,30.10,30.01,17,8,17,0.00
2013-6-26,87.9,81.9,75.1,77.3,74.6,71.3,95,79,59,30.05,29.98,18,8,18,0.37
2013-6-27,89.7,81.1,77.0,77.3,74.7,69.7,95,81,62,30.04,29.93,14,4,14,0.00
2013-6-28,91.2,80.4,70.7,77.3,74.1,69.0,97,82,53,29.97,29.83,27,5,27,1.13
2013-6-29,94.4,79.1,73.3,76.6,73.9,70.2,97,86,50,29.89,29.76,31,4,31,0.67
2013-6-30,88.7,77.7,72.0,77.6,74.3,70.2,98,90,64,29.92,29.81,26,7,26,1.86
2013-7-1,88.2,80.2,74.8,77.3,74.9,71.0,97,84,64,30.01,29.88,27,9,27,0.17
2013-7-2,86.8,80.8,75.6,77.9,75.3,70.7,95,83,73,30.08,29.95,20,8,20,0.01
2013-7-3,86.3,80.3,75.3,77.5,74.8,71.1,92,84,70,30.10,30.02,26,10,26,0.19
2013-7-4,86.0,81.9,76.4,78.0,75.3,72.1,94,81,71,30.13,30.04,23,12,23,0.21
2013-7-5,84.9,80.7,73.5,77.1,74.7,69.8,93,82,71,30.11,30.03,25,12,25,0.33
2013-7-6,85.3,81.8,79.1,76.2,74.1,71.6,83,78,66,30.09,30.01,22,12,22,0.00
2013-7-7,85.1,81.7,78.6,76.3,74.5,72.6,89,79,69,30.08,30.00,22,9,22,0.00
2013-7-8,85.9,81.7,77.9,75.6,73.4,68.2,89,76,57,30.12,30.05,18,7,18,0.00
2013-7-9,86.2,79.3,74.2,75.8,73.6,68.7,94,83,65,30.12,30.02,16,4,16,0.25
2013-7-10,85.3,78.1,71.3,75.0,72.9,69.0,96,84,67,30.06,29.97,14,5,14,0.07
2013-7-11,88.5,80.8,76.0,77.0,74.4,70.0,93,82,63,30.01,29.91,18,5,18,0.00
2013-7-12,91.3,79.8,74.1,77.1,74.1,70.2,97,84,57,29.93,29.86,20,3,20,0.13
2013-7-13,85.5,75.5,72.5,77.1,73.1,71.2,97,92,73,29.99,29.89,21,4,21,1.24
2013-7-14,85.4,76.5,72.1,75.7,72.7,70.7,98,89,67,30.07,29.95,18,5,18,0.12
2013-7-15,85.7,78.1,71.9,76.8,73.3,70.4,98,86,67,30.07,29.99,20,5,20,0.27
2013-7-16,81.7,77.6,71.2,74.7,72.5,69.0,96,85,74,30.14,30.03,27,9,27,0.71
2013-7-17,81.0,77.9,71.9,74.7,72.9,68.9,96,85,76,30.11,30.02,22,6,22,0.12
2013-7-18,85.0,77.2,71.3,76.3,73.0,69.8,96,87,69,30.10,30.03,22,6,22,0.94
2013-8-5,89.1,88.3,80.5,79.3,77.0,76.7,93,70,67,30.00,29.99,26,5,12,0.00
2013-8-6,95.5,85.9,74.6,77.8,76.3,73.7,97,74,55,29.99,29.87,14,4,14,0.00
2013-8-7,88.4,82.5,77.4,77.8,75.6,72.2,96,80,61,29.96,29.87,22,6,22,0.00
2013-8-8,88.4,83.2,78.1,77.1,75.3,72.9,91,78,63,29.99,29.90,20,10,20,0.30
2013-8-9,86.9,82.3,79.0,77.0,74.0,70.7,89,76,65,30.04,29.92,22,9,22,0.03
2013-8-10,89.8,83.5,79.2,77.1,75.4,73.3,88,77,61,30.09,30.01,20,8,20,0.00
2013-8-11,88.7,83.7,80.2,77.5,75.5,73.4,86,77,64,30.10,30.04,17,7,17,0.00
2013-8-12,88.0,82.5,76.5,76.3,74.8,72.0,94,78,62,30.08,29.99,17,6,17,0.00
2013-8-13,90.2,83.9,78.4,77.2,75.3,72.4,93,76,60,30.02,29.92,17,6,17,0.00
2013-8-14,91.3,83.1,76.4,77.3,74.5,70.9,95,76,55,30.00,29.90,18,6,18,0.00
2013-8-15,88.4,81.7,76.3,77.0,74.8,72.0,89,80,63,30.03,29.93,15,6,15,0.01
2013-8-16,89.2,82.3,74.4,79.8,76.1,72.0,95,82,65,30.03,29.95,23,5,23,0.03
2013-8-17,89.0,84.1,80.9,79.1,76.9,72.6,89,79,65,30.05,29.97,18,8,18,0.00
2013-8-18,87.4,83.1,78.1,78.4,76.2,72.2,90,80,70,30.05,29.97,21,9,21,0.01
2013-8-19,88.3,83.5,79.1,77.9,76.0,71.3,90,79,66,30.05,29.94,21,8,21,0.02
2013-8-20,88.4,82.2,75.7,77.5,75.7,72.1,95,81,61,30.04,29.95,20,7,20,0.18
2013-8-21,86.8,81.6,75.6,78.2,76.7,71.7,95,85,74,30.05,29.97,20,8,20,0.26
2013-8-22,87.2,82.9,76.0,78.5,76.6,73.0,94,82,68,30.04,29.93,18,7,18,0.02
2013-8-23,88.8,82.9,79.3,78.0,75.8,73.2,90,80,64,29.99,29.91,16,5,16,0.00
2013-8-24,88.9,81.9,75.9,78.4,75.3,70.9,95,81,61,30.06,29.95,24,5,24,0.42
2013-8-25,86.6,80.1,75.3,76.3,74.4,72.1,95,83,66,30.12,30.00,15,6,15,0.00
2013-8-26,88.3,80.2,74.1,76.8,74.5,71.7,96,83,64,30.09,29.98,20,4,20,0.04
2013-8-27,83.7,77.2,71.3,75.3,72.7,68.7,97,87,68,30.03,29.94,17,3,17,0.14
2013-8-28,86.1,79.6,73.7,75.7,73.8,69.2,96,83,65,30.02,29.93,26,4,26,0.44
2013-8-29,89.0,81.1,73.1,76.9,74.0,69.8,96,80,62,30.00,29.90,15,4,15,0.04
2013-8-30,92.5,83.6,76.5,76.8,74.6,69.1,95,76,50,29.97,29.87,17,5,17,0.00
2013-8-31,94.2,81.3,71.9,76.7,73.3,68.9,96,78,44,29.95,29.88,25,6,25,0.55
2013-9-1,92.3,80.3,74.3,77.9,74.7,70.7,99,84,54,29.97,29.90,14,2,14,0.01
2013-9-2,93.4,78.8,73.3,77.7,74.5,71.5,97,88,55,30.00,29.90,31,3,31,0.17
2013-9-3,93.5,81.4,72.9,76.5,73.7,70.8,98,80,49,30.00,29.90,13,3,13,0.00
2013-9-4,86.4,82.3,78.3,79.1,76.7,74.3,94,84,72,30.04,29.92,14,3,14,0.07
2013-9-5,89.5,83.7,80.5,78.5,76.6,73.2,91,80,64,30.04,29.97,15,5,15,0.01
2013-9-6,90.6,84.0,78.9,78.8,76.1,73.2,92,78,61,30.01,29.90,18,5,18,0.00
2013-9-7,88.6,77.9,72.0,78.5,74.2,69.8,98,89,63,29.95,29.87,21,4,21,3.82
2013-9-8,90.2,78.8,73.1,77.6,73.6,69.5,97,85,56,29.92,29.83,22,3,22,0.84
2013-9-9,86.7,79.6,74.6,77.6,74.2,68.6,97,84,68,29.98,29.86,24,5,24,0.27
2013-9-10,86.0,79.7,74.4,76.5,74.4,69.9,96,84,71,30.02,29.92,23,7,23,0.19
2013-9-11,83.1,79.3,72.6,76.3,74.4,71.4,98,85,74,30.06,29.94,20,5,20,1.88
2013-9-12,83.5,77.5,74.0,77.1,74.7,73.0,98,92,77,29.98,29.87,14,3,14,0.50
2013-9-13,93.0,80.8,73.0,76.8,74.4,71.7,98,82,53,29.88,29.78,12,4,12,0.22
2013-9-14,93.3,82.8,77.0,77.0,74.6,71.6,94,77,53,29.94,29.79,15,4,15,0.00
2013-9-15,86.3,80.4,74.1,78.0,75.6,70.9,98,86,75,30.04,29.88,23,5,23,0.29
2013-9-16,86.3,78.7,72.7,77.8,75.5,69.5,97,90,75,30.03,29.93,30,7,30,0.84
2013-9-17,79.6,76.9,73.1,76.3,74.3,71.5,98,92,84,30.02,29.90,21,5,21,1.01
2013-9-18,84.5,78.8,73.9,76.6,74.1,72.2,96,86,73,29.98,29.89,16,5,16,0.37
2013-9-19,85.3,78.9,73.9,76.8,73.8,70.2,97,85,72,29.98,29.89,20,8,20,0.00
2013-9-20,85.6,80.2,73.3,72.6,70.2,66.4,90,72,56,29.97,29.87,20,7,20,0.00
2013-9-21,88.3,80.1,73.5,72.8,71.2,69.1,88,75,55,29.89,29.75,14,4,14,0.00
2013-9-22,92.3,82.7,75.5,77.2,73.9,71.1,95,76,52,29.83,29.72,15,5,15,0.00
2013-9-23,87.5,79.9,76.9,78.5,75.8,74.0,96,88,69,29.95,29.82,13,3,13,0.08
2013-9-24,89.1,77.0,73.1,80.0,74.7,70.8,97,93,72,29.94,29.84,18,4,18,0.95
2013-9-25,88.1,79.1,72.8,76.8,72.9,70.5,96,82,60,29.87,29.74,22,7,22,0.00
2013-9-26,90.5,79.6,75.1,79.4,75.9,73.1,95,89,68,29.83,29.75,27,7,27,0.15
2013-9-27,89.2,80.0,72.4,75.3,72.8,69.0,97,80,53,29.89,29.78,16,6,16,0.01
2013-9-28,85.0,79.3,73.4,76.3,72.5,68.7,96,81,66,29.93,29.84,23,8,23,0.02
2013-9-29,86.2,79.3,72.6,73.8,70.7,68.2,95,76,58,29.94,29.85,15,4,15,0.00
2013-9-30,86.6,79.5,73.4,74.5,71.3,68.0,97,77,55,29.97,29.87,12,4,12,0.00
2013-10-1,85.3,81.1,78.0,74.6,72.2,70.0,85,75,64,30.01,29.92,20,8,20,0.00
2013-10-2,83.8,80.7,78.7,73.5,71.9,70.7,80,75,66,30.01,29.94,20,9,20,0.00
2013-10-3,84.7,80.5,76.9,73.9,72.2,69.8,86,76,63,30.03,29.92,16,5,16,0.00
2013-10-4,86.0,79.5,74.6,74.0,71.4,68.6,92,77,59,30.03,29.95,15,4,15,0.00
2013-10-5,86.2,79.1,71.7,74.5,72.0,69.7,96,80,60,30.01,29.90,18,5,18,0.00
2013-10-6,85.9,80.0,75.2,76.6,73.6,71.3,95,81,66,29.94,29.84,14,3,14,0.08
2013-10-7,88.3,77.4,71.2,74.7,72.4,70.0,97,86,59,29.86,29.78,20,6,20,1.41
2013-10-8,89.4,80.2,74.5,75.5,73.3,70.0,98,81,58,29.90,29.81,20,7,20,0.01
2013-10-9,84.0,76.5,71.4,76.2,72.4,68.9,97,88,75,29.96,29.86,20,7,20,0.00
2013-10-10,85.9,77.7,70.1,74.2,70.6,68.7,96,80,59,29.98,29.91,20,7,20,0.00
2013-10-11,85.5,76.9,69.0,71.9,67.8,65.4,96,75,55,29.99,29.91,15,4,15,0.00
2013-10-12,88.3,77.5,69.4,70.8,67.9,63.8,95,74,51,30.00,29.92,15,3,15,0.00
2013-10-13,86.3,77.2,70.7,71.4,66.8,62.0,94,73,46,30.02,29.94,17,5,17,0.00
2013-10-14,86.0,77.1,69.8,71.2,68.8,65.0,95,77,52,29.98,29.88,14,4,14,0.00
2013-10-15,85.5,77.2,69.9,72.4,70.2,68.0,97,80,57,29.92,29.84,13,4,13,0.00
2013-10-16,84.5,77.8,70.5,73.0,70.7,68.8,96,80,62,29.92,29.86,17,4,17,0.00
2013-10-17,85.0,78.8,71.8,73.9,71.3,69.7,96,79,63,29.94,29.86,12,3,12,0.00
2013-10-18,86.4,79.1,72.0,74.7,72.3,69.7,97,80,65,29.96,29.87,16,4,16,0.00
2013-10-19,87.5,81.2,75.9,74.4,72.5,68.8,91,76,56,29.93,29.84,15,6,15,0.00
2013-10-20,90.8,80.8,75.4,76.1,74.1,71.4,96,81,56,29.93,29.84,14,3,14,0.00
2013-10-21,88.1,81.1,75.3,76.8,74.9,73.4,95,82,67,29.97,29.87,16,4,16,0.00
2013-10-22,91.2,82.6,76.3,77.1,74.8,70.7,92,78,53,29.93,29.79,14,6,14,0.00
2013-10-23,87.5,78.3,73.6,74.7,72.0,67.8,95,81,64,29.93,29.78,18,6,18,0.00
2013-10-24,80.1,74.6,68.7,68.9,64.1,60.8,87,70,59,30.07,29.91,18,8,18,0.00
2013-10-25,79.9,73.7,65.7,66.0,63.4,60.3,89,71,56,30.13,30.04,20,7,20,0.00
2013-10-26,81.8,72.5,64.3,67.2,62.8,59.6,92,73,54,30.12,30.03,14,4,14,0.00
2013-10-27,82.2,71.9,63.3,67.6,63.8,60.0,92,76,59,30.06,30.00,15,5,15,0.00
2013-10-28,81.6,73.5,64.4,69.0,65.2,59.0,96,77,48,30.12,30.02,16,4,16,0.00
2013-10-29,82.0,75.1,66.2,70.9,66.8,63.6,95,77,58,30.15,30.06,22,8,22,0.07
2013-10-30,81.5,77.8,74.5,69.0,66.8,65.0,77,69,61,30.17,30.06,22,11,22,0.00
2013-10-31,82.0,78.2,74.7,72.4,69.1,64.7,90,74,61,30.09,29.97,21,9,21,0.10
2013-11-1,86.1,79.6,74.1,73.6,72.2,70.5,90,79,63,29.98,29.85,18,6,18,0.00
2013-11-2,88.5,77.7,68.8,72.9,69.5,62.1,95,78,48,29.90,29.77,17,6,17,0.00
2013-11-3,79.7,73.0,66.2,65.1,61.7,58.9,87,69,53,30.00,29.86,26,13,26,0.00
2013-11-4,78.0,75.2,70.8,67.6,62.7,55.4,82,65,55,30.05,29.99,32,16,32,0.06
2013-11-5,80.8,77.6,75.5,70.7,68.4,63.5,81,73,66,30.07,29.99,30,17,30,0.00
2013-11-6,80.5,77.6,76.1,68.6,68.0,66.1,77,72,63,30.04,29.98,24,14,24,0.00
2013-11-7,79.4,79.4,79.4,67.0,67.0,67.0,66,66,66,30.03,30.03,12,12,12,0.00
2013-11-8,79.4,79.4,79.4,67.0,67.0,67.0,66,66,66,30.03,30.03,12,12,12,0.00
2013-11-9,79.4,79.4,79.4,67.0,67.0,67.0,66,66,66,30.03,30.03,12,12,12,0.00
2013-11-10,79.4,79.4,79.4,67.0,67.0,67.0,66,66,66,30.03,30.03,12,12,12,0.00
2013-11-11,79.4,79.4,79.4,67.0,67.0,67.0,66,66,66,30.03,30.03,12,12,12,0.00
2013-11-12,82.0,77.0,72.0,69.4,67.4,65.4,84,73,58,30.03,29.94,29,6,12,0.00
2013-11-13,73.8,70.7,67.8,66.9,61.6,52.0,89,73,57,30.20,29.97,31,15,31,0.02
2013-11-14,74.3,71.3,67.7,60.0,56.9,52.6,67,61,52,30.22,30.12,46,15,46,0.00
2013-11-15,78.3,75.0,72.2,67.5,64.7,59.3,76,70,63,30.13,30.01,22,12,22,0.00
2013-11-16,80.5,76.1,71.9,71.4,69.0,65.9,92,79,69,30.07,29.99,18,8,18,0.09
2013-11-17,82.0,77.9,73.8,73.3,70.9,68.0,89,79,64,30.05,29.97,20,8,20,0.00
2013-11-18,83.4,75.6,71.2,74.0,71.6,69.8,97,88,66,30.00,29.88,12,2,12,0.05
2013-11-19,86.1,75.5,70.8,73.4,70.8,69.1,97,86,60,29.91,29.82,17,4,17,0.02
2013-11-20,83.3,74.0,66.9,72.5,70.1,66.0,97,88,69,30.03,29.89,28,4,28,1.17
2013-11-21,76.6,74.0,71.1,74.1,71.4,69.6,97,91,82,30.12,30.01,22,7,22,1.01
2013-11-22,79.0,76.3,74.8,71.2,69.0,67.2,84,78,71,30.14,30.04,20,12,20,0.00
2013-11-23,79.8,75.5,70.2,71.0,69.0,67.5,93,81,70,30.05,29.94,17,5,17,0.00
2013-11-24,79.8,72.0,67.1,69.8,66.7,62.4,97,84,64,30.13,29.96,28,12,28,0.05
2013-11-25,73.3,71.4,69.4,67.4,63.2,57.3,87,76,62,30.18,30.03,29,17,29,0.02
2013-11-26,81.6,76.8,71.9,73.7,71.7,67.4,91,84,76,30.03,29.78,25,14,25,0.06
2013-11-27,76.7,69.9,55.3,73.8,63.8,49.9,97,82,59,30.09,29.74,26,12,26,0.37
2013-11-28,71.8,61.1,45.2,59.2,52.1,42.8,92,74,53,30.23,30.08,20,10,20,0.00
2013-11-29,76.0,68.0,56.9,62.4,58.8,54.9,95,74,53,30.24,30.17,25,10,25,0.00
2013-11-30,75.8,68.1,59.6,68.1,62.2,58.2,96,82,64,30.19,30.08,26,9,26,0.20
2013-12-1,71.3,67.0,62.5,70.7,65.6,60.8,98,95,78,30.08,29.91,13,4,13,0.49
2013-12-2,69.8,65.8,61.8,67.2,63.7,60.6,98,93,79,29.91,29.79,14,4,14,0.06
2013-12-3,79.3,69.2,61.3,65.6,62.8,60.1,98,82,55,29.97,29.86,12,3,12,0.01
2013-12-4,81.1,72.3,65.2,68.5,65.8,63.7,95,81,62,30.07,29.96,14,4,14,0.00
2013-12-5,78.3,72.0,65.9,73.1,68.4,64.3,96,88,78,30.14,30.05,17,4,17,0.39
2013-12-6,81.5,75.5,68.3,70.7,68.4,65.5,93,79,65,30.16,30.06,20,7,20,0.00
2013-12-7,81.0,71.7,66.5,72.1,68.4,65.3,96,90,72,30.20,30.11,13,3,13,0.06
2013-12-8,81.1,76.4,73.9,71.9,69.2,67.2,90,79,66,30.18,30.09,17,8,17,0.00
2013-12-9,82.2,76.5,71.0,69.9,67.3,61.0,88,74,50,30.17,30.08,21,7,21,0.00
2013-12-10,85.0,75.8,70.4,72.0,69.9,67.3,95,83,59,30.13,30.05,13,4,13,0.00
2013-12-11,81.7,74.3,68.5,73.0,68.9,64.2,98,84,58,30.18,30.09,13,3,13,0.01
2013-12-12,74.8,70.6,67.3,69.9,65.1,57.7,98,84,65,30.20,30.10,24,10,24,0.01
2013-12-13,74.7,71.5,68.8,66.3,61.3,56.3,80,70,63,30.18,30.08,22,13,22,0.00
2013-12-14,80.7,76.0,72.7,71.5,69.7,66.0,91,81,71,30.08,29.96,22,11,22,0.00
2013-12-15,79.7,74.1,69.4,74.3,70.8,65.6,95,89,82,30.03,29.90,21,8,21,0.03
2013-12-16,74.5,65.9,58.2,65.7,60.0,55.9,93,81,65,30.13,30.01,16,8,16,0.00
2013-12-17,76.3,65.2,56.5,63.4,57.9,55.0,96,79,56,30.16,30.07,16,5,16,0.00
2013-12-18,74.3,64.3,56.8,59.3,56.8,53.6,96,78,54,30.22,30.11,20,7,20,0.01
2013-12-19,75.0,66.8,55.8,63.4,58.4,53.8,95,76,58,30.22,30.13,18,6,18,0.00
2013-12-20,79.0,74.6,71.0,70.3,66.1,62.8,86,75,68,30.17,30.08,20,8,20,0.00
2013-12-21,81.0,76.9,74.2,72.3,70.4,68.2,86,81,72,30.12,30.03,23,11,23,0.00
2013-12-22,82.2,77.5,75.2,72.0,71.2,69.4,89,81,67,30.13,30.05,25,12,25,0.01
2013-12-23,82.5,77.3,71.4,73.2,71.3,68.7,92,82,71,30.15,30.08,23,9,23,0.00
2013-12-24,81.5,70.7,66.1,71.8,66.2,59.2,98,86,72,30.14,30.08,24,8,24,0.01
2013-12-25,73.9,71.3,69.3,65.6,63.7,61.5,87,77,73,30.15,30.08,23,14,23,0.00
2013-12-26,77.6,73.7,71.2,69.8,67.8,64.6,87,82,75,30.14,30.03,16,7,16,0.01
2013-12-27,78.5,74.0,67.9,71.0,68.4,65.8,94,83,75,30.17,30.06,20,9,20,0.30
2013-12-28,77.6,75.2,73.2,71.2,69.0,65.7,93,81,77,30.16,30.00,21,13,21,0.02
2013-12-29,81.0,76.1,72.3,73.6,72.0,70.5,95,88,75,30.00,29.89,23,10,23,0.02
2013-12-30,78.5,70.8,66.6,71.0,67.5,62.8,97,90,74,30.12,29.94,14,5,14,0.00
2013-12-31,76.6,70.7,65.4,66.4,63.0,61.1,89,77,67,30.20,30.08,27,10,27,0.00
2014-1-1,79.4,74.7,69.6,72.1,69.0,63.3,92,83,72,30.17,30.01,20,10,20,0.01
2014-1-2,83.9,76.0,70.4,71.4,68.3,64.5,95,78,56,30.01,29.83,25,9,25,0.00